www.pogodaiklimat.ru

Погода и климат >> Архив погоды >> Мексика >> Soto La Marina


ПОГОДА в Soto La Marina

  • Прогноз погоды в Soto La Marina
  • Монитор погоды в Soto La Marina
  • Климат города

АРХИВ ПОГОДЫ в Soto La Marina

Время (UTC), дата Ветер
(напр.,м/с)
 
Видим.   Явления Облачность Т
(С)
Тd
(С)
f
(%)
Тe
(С)
Тes
(С)
Комфортность P
(гПа)
Po
(гПа)
Тmin
(С)
Tmax
(С)
R
(мм)
R24
(мм)
S
(см)
18 12.09 СВ 1 10 км ясно +32.0 +18.2 44 +37 +59 опасность
солнечного
удара
1012.9 1010.5 +19.2 +32.1
21 12.09 СВ 2 10 км 3/3 600 м
[Cu med, cong]
+35.0 +15.6 31 +37 +45 очень
душно
1009.6 1007.2
00 13.09 В 3 8000 м мгла {туман} ясно +31.4 +19.2 48 +37 +37 очень
душно
1009.2 1006.8 +36.2
03 13.09 штиль 0 6000 м ясно +25.7 +19.3 68 +31 +31 очень
душно
1010.6 1008.2
12 13.09 СЗ 1 6000 м ясно +20.0 +20.0 100 +25 +25 комфорт 1009.0 1007.5 +19.8 +36.2
15 13.09 СЗ 1 10 км ясно +25.3 +20.2 73 +31 +39 очень
душно
1011.2 1008.8
18 13.09 ЮВ 1 10 км ясно +32.8 +17.9 41 +37 +59 опасность
солнечного
удара
1010.1 1007.7 +19.8 +32.9
21 13.09 ЮВ 1 8000 м мгла {туман} ясно +37.6 +14.4 25 +38 +53 опасность
солнечного
удара
1007.5 1005.1
00 14.09 В 3 8000 м мгла {туман} ясно +34.1 +16.9 36 +37 +38 очень
душно
1007.4 1005.0 +19.8 +38.5
03 14.09 ЮВ 1 6000 м ясно +26.6 +21.7 75 +34 +34 очень
душно
1009.5 1007.1
12 14.09 штиль 0 5000 м ясно +20.2 +19.1 93 +24 +24 комфорт 1009.4 1007.0 +20.1 +38.5
15 14.09 штиль 0 10 км ясно +25.8 +18.6 64 +31 +40 очень
душно
1010.8 1008.4
18 14.09 В 1 10 км ясно +34.8 +21.1 45 +42 +64 опасность
перегрева
1009.9 1007.5 +20.1 +34.9
21 14.09 ЮВ 1 10 км ясно +38.0 +19.9 35 +43 +58 опасность
перегрева
1007.3 1004.9
00 15.09 В 2 8000 м мгла {туман} ясно +33.3 +23.5 57 +44 +45 опасность
перегрева
1007.2 1004.9 +20.1 +38.3
03 15.09 В 1 6000 м ясно +26.6 +24.0 86 +37 +37 очень
душно
1009.5 1007.1
12 15.09 СЗ 1 6000 м ясно +21.9 +21.9 100 +29 +29 очень
душно
1009.8 1007.4 +21.7 +38.3
15 15.09 В 1 10 км ясно +27.1 +20.9 69 +34 +42 очень
душно
1011.2 1008.8
18 15.09 Ю 3 8000 м мгла {туман} 1/1 600 м
[Cu med, cong]
+34.3 +18.7 40 +39 +53 опасность
солнечного
удара
1010.4 1008.0 +21.4 +34.4
21 15.09 Ю 3 8000 м мгла {туман} 1/1 600 м
[Cu med, cong]
+36.5 +20.1 38 +42 +51 опасность
перегрева
1007.6 1005.2
00 16.09 В 1 8000 м мгла {туман} ясно +32.5 +23.4 59 +43 +44 опасность
перегрева
1008.2 1005.8 +21.4 +37.6
03 16.09 штиль 0 6000 м ясно +27.5 +24.9 86 +39 +39 очень
душно
1010.8 1008.4
12 16.09 штиль 0 300 м туман ясно +24.5 +24.5 100 +34 +34 очень
душно
1011.9 1009.5 +24.3 +37.6
15 16.09 В 1 8000 м мгла {туман} ясно +27.6 +26.9 96 +43 +51 опасность
перегрева
1013.4 1011.4
18 16.09 В 2 7000 м мгла {туман} 5/5 660 м
[Cu med, cong]
+34.6 +22.4 49 +44 +53 опасность
перегрева
1012.0 1009.6 +24.2 +34.8
21 16.09 В 3 7000 м мгла {туман} 6/6 660 м
[Cu med, cong]
+35.4 +23.0 49 +45 +49 опасность
перегрева
1009.8 1007.4
03 17.09 ЮВ 1 5000 м ясно +28.1 +25.3 85 +41 +41 опасность
перегрева
1013.0 1010.6
06 17.09 штиль 0 5000 м 4/4 600 м
[Cu med, cong]
+27.0 +26.0 94 +40 +40 очень
душно
1013.8 1011.4 +24.2 +37.5
09 17.09 ЮВ 1 5000 м ясно +26.0 +26.0 100 +39 +39 очень
душно
1013.0 1010.6
12 17.09 штиль 0 5000 м 3/3 600 м
[Cu med, cong]
+25.1 +25.1 100 +36 +36 очень
душно
1013.7 1011.3 +25.0 +37.5
15 17.09 штиль 0 10 км 5/5 600 м
[Cu med, cong]
+28.2 +24.2 79 +39 +44 очень
душно
1015.2 1012.8
18 17.09 ЮВ 1 10 км 4/4 600 м
[Cu med, cong]
+34.4 +22.7 51 +44 +57 опасность
перегрева
1013.9 1011.5 +25.0 +34.5
21 17.09 В 1 200 м дождь 5/5 450 м
[Frnb]
+32.4 +24.9 65 +46 +53 опасность
перегрева
1011.6 1009.2 0.5
00 18.09 СВ 2 9000 м {дождь, морось} 3/3 600 м
[Cb cap]
+29.4 +25.9 81 +44 +44 опасность
перегрева
1011.6 1009.2 16
03 18.09 ЮВ 1 6000 м ясно +27.2 +25.5 90 +40 +40 очень
душно
1013.1 1010.7
06 18.09 ЮВ 1 5000 м ясно +25.8 +25.8 100 +38 +38 очень
душно
1013.9 1011.5 +25.0 +37.6
09 18.09 ЮВ 1 5000 м ясно +24.9 +24.9 100 +35 +35 очень
душно
1013.0 1010.6
12 18.09 штиль 0 100 м туман ясно +24.4 +24.4 100 +34 +34 очень
душно
1013.3 1010.9 +24.3 +37.6
15 18.09 ЮВ 1 10 км ясно +28.4 +23.5 75 +39 +47 очень
душно
1014.4 1012.0
18 18.09 Ю 2 10 км 3/3 600 м
[Cu med, cong]
+35.0 +22.4 48 +44 +57 опасность
перегрева
1013.7 1011.3 +24.3 +35.1
21 18.09 ЮВ 3 10 км 4/4 630 м
[Cu med, cong]
+36.6 +22.1 43 +45 +51 опасность
перегрева
1010.8 1008.4
00 19.09 ЮВ 2 10 км ясно +32.7 +22.7 56 +43 +43 опасность
перегрева
1010.4 1008.1 +24.3 +38.6
03 19.09 штиль 0 6000 м ясно +28.1 +25.1 84 +41 +41 опасность
перегрева
1011.9 1009.6
06 19.09 В 1 6000 м ясно +26.3 +25.5 95 +38 +38 очень
душно
1012.9 1010.5 +24.3 +38.6
09 19.09 В 1 5000 м ясно +25.3 +25.3 100 +36 +36 очень
душно
1012.1 1009.7
12 19.09 штиль 0 6000 м ясно +24.4 +24.4 100 +34 +34 очень
душно
1012.5 1010.1 +24.1 +38.6

 

Местоположение метеостанции Soto La Marina (Мексика): широта 23.77 долгота -98.20 высота над уровнем моря 21 м.

В архиве по умолчанию представлена погода в Soto La Marina за последнюю неделю. Архивные данные за месяц целиком и за предыдущие месяцы, начиная с января 2011 года, Вы можете получить, выбрав интересующий диапазон дат из раскрывающегося списка и нажав кнопку "Ввод!".

Внимание! Время в таблицах - всемирное. Для получения местного времени необходимо прибавить поправку, которая в Soto La Marina равна -6 ч.

Смотрите также архив погоды в соседних городах и на ближайших метеорологических станциях:

Погода в Ciudad Victoria (Мексика) (95 км)
Погода в Tampico (Мексика) (178 км)
Погода в Tamuin (Мексика) (205 км)
Погода в Rio Verde (Мексика) (274 км)
Погода в Matlapa (Мексика) (280 км)
Погода в Monterrey (Мексика) (304 км)
Погода в Tuxpan. Ver. (Мексика) (324 км)
Погода в San Luis Potosi (Мексика) (328 км)
Погода в Saltillo (Мексика) (334 км)
Погода в Pachuca (Мексика) (409 км)

Пояснения к столбцам:

Ветер - указаны скорость ветра в м/с - средняя за 10 мин, порывы в срок и между сроками (в фигурных скобках) и направление, откуда дует ветер: С - северный, СВ - северо-восточный, В - восточный, ЮВ - юго-восточный, Ю - южный, ЮЗ - юго-западный, З - западный, СЗ - северо-западный.
Видимость - горизонтальная дальность видимости в метрах или километрах. При видимости от 1 до 10 км при отсутствии осадков обычно наблюдается дымка, при ухудшении видимости до 1 км и менее - туман. В сухую погоду видимость может ухудшаться дымом, пылью или мглою.
Явления - указаны атмосферные явления, наблюдавшиеся в срок или в последний час перед сроком; фигурными скобками обозначены явления, наблюдавшиеся между сроками (за 1-3 часа до срока); квадратными скобками обозначены град или гололедные отложения с указанием их диаметра в мм.
Облачность - указаны через наклонную черту общая и нижняя облачность в баллах и высота нижней границы облаков в метрах; квадратными скобками обозначены формы облаков: Ci - перистые, Cs - перисто-слоистые, Cc - перисто-кучевые, Ac - высококучевые, As - высокослоистые, Sc - слоисто-кучевые, Ns - слоисто-дождевые, Cu - кучевые, Cb - кучево-дождевые. Подробнее классификацию облаков см. в Атласе облаков (PDF).
T - Температура воздуха - температура, измеренная на высоте 2 м над землей.
Td - Температура точки росы - температура, при понижении до которой содержащийся в воздухе водяной пар достигнет насыщения.
f - Относительная влажность воздуха - влажноcть воздуха, измеренная на высоте 2 м над землей.
Te - Эффективная температура - температура, которую ощущает одетый по сезону человек в тени. Характеристика душности погоды. При расчете учитывается влияние влажности воздуха и скорости ветра на теплоощущения человека.
Tes - Эффективная температура на солнце - температура, которую ощущает человек, с поправкой на солнечный нагрев. Характеристика знойности погоды. Зависит от высоты солнца над горизонтом, облачности и скорости ветра. Ночью, в пасмурную погоду, а также при ветре 12 м/с и более поправка равна нулю.
P - Атмосферное давление - приведенное к уровню моря атмосферное давление.
Po - Атмосферное давление - измеренное на уровне метеостанции атмосферное давление.
Tmin - Минимальная температура - минимум температуры воздуха на высоте 2 м над землей.
Tmax - Максимальная температура - максимум температуры воздуха на высоте 2 м над землей.
R - Количество осадков - Количество выпавших осадков за период времени, мм. При наведении курсора мыши на число - период времени, за который выпало указанное количество осадков.
R24 - Количество осадков - Количество выпавших осадков за 24 часа, мм.
S - Снежный покров - Высота снежного покрова, см. При наведении курсора мыши на число - состояние снежного покрова и степень покрытия местности в баллах.